Weather in Lubek

Germany     53°52′28″N   10°41′41″E
temp.,
°C
wind,
m/s
gust,
m/s
humid.,
%
clouds,
%
prec.,
mm/h
press.,
hPa
HPBL,
m
31 july, sat
sat3123:00+17se227838 0.1 100417
02:00+15ssw499779 3.1 1004255
05:00+14sw412963 0.1 1003366
08:00+15sw71186100 0.1 10031064
11:00+15ssw71382100 0.0 10031051
14:00+17sw10157746 0.9 10031385
17:00+19wsw9147812 1.4 10031408
20:00+17wsw712869 2.2 1005880
1 august, sun
sun123:00+15sw6139556 0.1 1006602
02:00+15sw61293100 0.2 1006585
05:00+14wsw5119587 0.3 1006472
08:00+14sw579396 0.4 1007444
11:00+17wsw578074 0.6 1007915
14:00+18w577258 1.3 10071031
17:00+19w566192 0.1 10081365
20:00+17wnw477214 0.1 1008455
2 august, mon
mon223:00+13w34875 0.0 100958
02:00+11wnw358935 0.0 100989
05:00+12wsw36828 0.0 1009164
08:00+14w367797 0.0 1010275
11:00+18w685746 0.1 10111687
14:00+18wnw685414 0.1 10111487
17:00+19w785642 0.1 10121677
20:00+16w58681 0.1 1012540
3 august, tue
tue323:00+12wsw37905 0.0 1013137
02:00+11w35951 0.0 101477
05:00+10w33950 0.0 101449
08:00+14wsw23835 0.0 1014201
11:00+18wsw2262100 0.0 10141074
14:00+20sw2253100 0.0 10131426
17:00+21nne215098 0.0 10131636
20:00+17nne357191 0.1 1013147
4 august, wed
wed423:00+16ne377094 0.0 1013213
02:00+15ene257275 0.0 1013162
05:00+13ne227988 0.0 101335
08:00+16ne237298 0.0 1013191
11:00+19nne4464100 0.0 1013906
14:00+20nne445742 0.0 10131230
17:00+20ne555620 0.0 10131280
20:00+18ne357217 0.0 1013265